• In Hungary
  • List of Countries
  • For 7 days
  • Water Temperature
  • Satellite Maps
  • Weather Map
  • News
  • Weather Widgets
  • user-avatar
    Login

    Hourly Weather Aqtobe

    Today, 26 May, Saturday

    Time Temperature Precipitation Wind Pressure Humidity
    00:00 +21°C° 0 mm 5 mps 734 mmHg 49%
    01:00 +20°C° 0 mm 4 mps 734 mmHg 58%
    02:00 +17°C° 0 mm 5 mps 734 mmHg 67%
    03:00 +16°C° 0 mm 5 mps 734 mmHg 76%
    04:00 +12°C° 0 mm 9 mps 734 mmHg 86%
    05:00 +12°C° 0.2 mm 9 mps 734 mmHg 83%
    06:00 +12°C° 0.2 mm 8 mps 734 mmHg 81%
    07:00 +11°C° 0.2 mm 7 mps 734 mmHg 78%
    08:00 +11°C° 0.9 mm 8 mps 735 mmHg 79%
    09:00 +10°C° 0.9 mm 8 mps 736 mmHg 79%
    10:00 +7°C° 0 mm 9 mps 736 mmHg 80%
    11:00 +7°C° 0.5 mm 9 mps 737 mmHg 77%
    12:00 +7°C° 0.5 mm 9 mps 738 mmHg 73%
    13:00 +7°C° 0.5 mm 10 mps 738 mmHg 70%
    14:00 +8°C° 0 mm 10 mps 739 mmHg 66%
    15:00 +9°C° 0 mm 10 mps 740 mmHg 61%
    16:00 +9°C° 0 mm 10 mps 740 mmHg 56%
    17:00 +10°C° 0 mm 9 mps 740 mmHg 56%
    18:00 +10°C° 0 mm 9 mps 741 mmHg 55%
    19:00 +8°C° 0 mm 9 mps 741 mmHg 55%
    20:00 +7°C° 0 mm 8 mps 742 mmHg 57%
    21:00 +6°C° 0 mm 7 mps 742 mmHg 59%
    22:00 +6°C° 0 mm 7 mps 743 mmHg 61%
    23:00 +5°C° 0 mm 7 mps 744 mmHg 61%

    Tomorrow, 27 May, Sunday

    Time Temperature Precipitation Wind Pressure Humidity
    00:00 +5°C° 0 mm 7 mps 744 mmHg 61%
    01:00 +4°C° 0 mm 7 mps 745 mmHg 60%
    02:00 +4°C° 0 mm 6 mps 745 mmHg 59%
    03:00 +3°C° 0 mm 6 mps 746 mmHg 58%
    04:00 +3°C° 0 mm 6 mps 746 mmHg 57%
    05:00 +4°C° 0 mm 6 mps 747 mmHg 52%
    06:00 +5°C° 0 mm 7 mps 747 mmHg 48%
    07:00 +5°C° 0 mm 8 mps 747 mmHg 43%
    08:00 +7°C° 0 mm 8 mps 748 mmHg 41%
    09:00 +9°C° 0 mm 7 mps 748 mmHg 38%
    10:00 +10°C° 0 mm 7 mps 748 mmHg 35%
    11:00 +11°C° 0 mm 7 mps 748 mmHg 35%
    12:00 +12°C° 0 mm 7 mps 748 mmHg 34%
    13:00 +14°C° 0 mm 7 mps 748 mmHg 34%
    14:00 +15°C° 0 mm 6 mps 748 mmHg 36%
    15:00 +15°C° 0 mm 6 mps 747 mmHg 37%
    16:00 +15°C° 0 mm 6 mps 747 mmHg 39%
    17:00 +15°C° 0 mm 5 mps 747 mmHg 43%
    18:00 +14°C° 0 mm 4 mps 747 mmHg 47%
    19:00 +14°C° 0 mm 4 mps 747 mmHg 51%
    20:00 +13°C° 0 mm 4 mps 747 mmHg 54%
    21:00 +11°C° 0 mm 3 mps 747 mmHg 57%
    22:00 +10°C° 0 mm 3 mps 747 mmHg 60%
    23:00 +10°C° 0 mm 4 mps 746 mmHg 61%

    Day after tomorrow, 28 May, Monday

    Time Temperature Precipitation Wind Pressure Humidity
    00:00 +10°C° 0 mm 4 mps 746 mmHg 62%
    01:00 +8°C° 0 mm 4 mps 746 mmHg 63%
    02:00 +8°C° 0 mm 4 mps 746 mmHg 63%
    03:00 +8°C° 0 mm 5 mps 745 mmHg 63%
    04:00 +7°C° 0 mm 5 mps 745 mmHg 62%
    05:00 +9°C° 0 mm 6 mps 744 mmHg 58%
    06:00 +10°C° 0 mm 7 mps 744 mmHg 53%
    07:00 +11°C° 0 mm 9 mps 744 mmHg 48%
    08:00 +13°C° 0 mm 9 mps 743 mmHg 45%
    09:00 +14°C° 0 mm 10 mps 742 mmHg 42%
    10:00 +16°C° 0 mm 10 mps 742 mmHg 39%
    11:00 +17°C° 0 mm 11 mps 741 mmHg 38%
    12:00 +17°C° 0 mm 12 mps 741 mmHg 37%
    13:00 +18°C° 0 mm 12 mps 740 mmHg 36%
    14:00 +17°C° 0.1 mm 11 mps 740 mmHg 47%
    15:00 +14°C° 0.1 mm 10 mps 740 mmHg 58%
    16:00 +12°C° 0.1 mm 8 mps 739 mmHg 69%
    17:00 +12°C° 0.1 mm 7 mps 739 mmHg 67%
    18:00 +13°C° 0.1 mm 6 mps 739 mmHg 65%
    19:00 +13°C° 0.1 mm 5 mps 739 mmHg 62%
    20:00 +12°C° 0 mm 4 mps 739 mmHg 64%
    21:00 +11°C° 0 mm 4 mps 739 mmHg 66%
    22:00 +10°C° 0 mm 4 mps 740 mmHg 68%
    23:00 +8°C° 0 mm 4 mps 739 mmHg 71%

    29 May, Tuesday

    Time Temperature Precipitation Wind Pressure Humidity
    00:00 +8°C° 0 mm 4 mps 739 mmHg 74%
    01:00 +7°C° 0 mm 4 mps 739 mmHg 77%
    02:00 +6°C° 0 mm 4 mps 739 mmHg 80%
    03:00 +6°C° 0 mm 5 mps 739 mmHg 82%
    04:00 +5°C° 0 mm 5 mps 739 mmHg 85%
    05:00 +4°C° 0 mm 6 mps 739 mmHg 79%
    06:00 +5°C° 0 mm 7 mps 740 mmHg 72%
    07:00 +6°C° 0 mm 7 mps 740 mmHg 66%
    08:00 +7°C° 0 mm 8 mps 740 mmHg 59%
    09:00 +9°C° 0 mm 8 mps 740 mmHg 52%
    10:00 +10°C° 0 mm 8 mps 740 mmHg 45%
    11:00 +11°C° 0 mm 9 mps 740 mmHg 43%
    12:00 +11°C° 0 mm 9 mps 740 mmHg 41%
    13:00 +11°C° 0 mm 9 mps 740 mmHg 40%
    14:00 +11°C° 0 mm 9 mps 740 mmHg 41%
    15:00 +11°C° 0 mm 9 mps 740 mmHg 42%
    16:00 +11°C° 0 mm 9 mps 740 mmHg 42%
    17:00 +10°C° 0 mm 8 mps 740 mmHg 44%
    18:00 +10°C° 0 mm 8 mps 740 mmHg 46%
    19:00 +9°C° 0 mm 7 mps 740 mmHg 48%
    20:00 +9°C° 0 mm 6 mps 740 mmHg 52%
    21:00 +8°C° 0 mm 5 mps 740 mmHg 56%
    22:00 +7°C° 0 mm 4 mps 741 mmHg 60%
    23:00 +7°C° 0 mm 4 mps 740 mmHg 65%

    30 May, Wednesday

    Time Temperature Precipitation Wind Pressure Humidity
    00:00 +7°C° 0 mm 4 mps 740 mmHg 70%
    01:00 +6°C° 0 mm 4 mps 740 mmHg 75%
    02:00 +6°C° 0 mm 4 mps 740 mmHg 81%
    03:00 +5°C° 0 mm 3 mps 740 mmHg 86%
    04:00 +4°C° 0 mm 3 mps 741 mmHg 92%
    05:00 +5°C° 0 mm 3 mps 741 mmHg 87%
    06:00 +6°C° 0 mm 4 mps 741 mmHg 82%
    07:00 +7°C° 0 mm 4 mps 741 mmHg 77%
    08:00 +8°C° 0 mm 4 mps 741 mmHg 76%
    09:00 +9°C° 0 mm 5 mps 741 mmHg 74%
    10:00 +10°C° 0 mm 5 mps 741 mmHg 72%
    11:00 +12°C° 0.1 mm 5 mps 741 mmHg 68%
    12:00 +14°C° 0.1 mm 5 mps 741 mmHg 65%
    13:00 +15°C° 0.1 mm 5 mps 741 mmHg 61%
    14:00 +16°C° 0 mm 5 mps 741 mmHg 59%
    15:00 +17°C° 0 mm 6 mps 740 mmHg 57%
    16:00 +19°C° 0 mm 6 mps 740 mmHg 55%
    17:00 +17°C° 0.1 mm 5 mps 740 mmHg 59%
    18:00 +18°C° 0.1 mm 4 mps 740 mmHg 64%
    19:00 +18°C° 0.1 mm 4 mps 739 mmHg 68%
    20:00 +17°C° 0.4 mm 4 mps 739 mmHg 70%
    21:00 +15°C° 0.4 mm 5 mps 739 mmHg 73%
    22:00 +15°C° 0.4 mm 5 mps 739 mmHg 75%
    23:00 +15°C° 0.3 mm 6 mps 739 mmHg 74%

    31 May, Thursday

    Time Temperature Precipitation Wind Pressure Humidity
    00:00 +15°C° 0.3 mm 7 mps 738 mmHg 73%
    01:00 +15°C° 0.3 mm 7 mps 738 mmHg 72%
    02:00 +15°C° 0 mm 7 mps 738 mmHg 70%
    03:00 +13°C° 0 mm 8 mps 738 mmHg 68%
    04:00 +13°C° 0 mm 8 mps 737 mmHg 66%
    05:00 +15°C° 0 mm 9 mps 737 mmHg 61%
    06:00 +16°C° 0 mm 9 mps 737 mmHg 56%
    07:00 +17°C° 0 mm 10 mps 737 mmHg 51%
    08:00 +18°C° 0 mm 11 mps 737 mmHg 46%
    09:00 +21°C° 0 mm 12 mps 736 mmHg 41%
    10:00 +22°C° 0 mm 13 mps 736 mmHg 36%
    11:00 +23°C° 0 mm 13 mps 736 mmHg 34%
    12:00 +24°C° 0 mm 13 mps 736 mmHg 31%
    13:00 +26°C° 0 mm 13 mps 736 mmHg 29%
    14:00 +26°C° 0 mm 13 mps 735 mmHg 28%
    15:00 +26°C° 0 mm 12 mps 735 mmHg 27%
    16:00 +26°C° 0 mm 12 mps 735 mmHg 27%
    17:00 +24°C° 0 mm 10 mps 735 mmHg 30%
    18:00 +23°C° 0 mm 8 mps 734 mmHg 32%
    19:00 +22°C° 0 mm 6 mps 734 mmHg 35%
    20:00 +21°C° 0 mm 6 mps 734 mmHg 35%
    21:00 +19°C° 0 mm 5 mps 734 mmHg 36%
    22:00 +17°C° 0 mm 5 mps 734 mmHg 36%
    23:00 +16°C° 0 mm 5 mps 734 mmHg 35%
    Show more